GW1508 Weather Reports


time (UTC)temp
C
wind
direction
speed
KPH
gust
KPH
rain 1hr
cm
rain 24hr
cm
rain mn
cm
humidity
%
barometer
mb
20260505041342 3 258 1.6 8.0 0.00 0.00 0.00 93 1018.3
20260505035835 -1 289 0.0 3.2 0.00 0.00 0.00 93 1018.4
20260505034334 -2 290 0.0 0.0 0.00 0.00 0.00 93 1018.6
20260505031351 -3 290 0.0 0.0 0.00 0.00 0.00 94 1018.8
20260505025845 -4 290 0.0 0.0 0.00 0.00 0.00 94 1018.9
20260505022850 -4 290 0.0 0.0 0.00 0.00 0.00 94 1019.1
20260505021343 -4 290 0.0 0.0 0.00 0.00 0.00 94 1019.2
20260505015835 -5 290 0.0 0.0 0.00 0.00 0.00 94 1019.2
20260505011432 -5 290 0.0 0.0 0.00 0.00 0.00 93 1019.6
20260505004353 -5 290 0.0 0.0 0.00 0.00 0.00 93 1019.8
20260505002845 -5 290 0.0 0.0 0.00 0.00 0.00 93 1020.0
20260505001339 -4 290 0.0 0.0 0.00 0.00 0.00 93 1019.9
20260504234352 -3 290 0.0 0.0 0.00 0.00 0.00 93 1019.9
20260504232841 -3 290 0.0 0.0 0.00 0.00 0.00 93 1019.9
20260504231335 -2 290 0.0 0.0 0.00 0.00 0.00 92 1020.1
20260504225646 -1 290 0.0 0.0 0.00 0.00 0.00 93 1020.1
20260504215910 0 290 0.0 0.0 0.00 0.00 0.00 92 1020.7
20260504214348 1 290 0.0 0.0 0.00 0.00 0.00 92 1020.7
20260504211351 3 290 0.0 0.0 0.00 0.00 0.00 94 1021.0
20260504204354 3 284 0.0 3.2 0.00 0.00 0.00 93 1021.1
20260504202848 3 317 0.0 0.0 0.00 0.00 0.00 91 1021.0
20260504195852 5 317 0.0 1.6 0.00 0.00 0.00 93 1021.0
20260504194341 6 23 0.0 1.6 0.00 0.00 0.00 93 1021.0
20260504185850 7 65 3.2 9.7 0.00 0.00 0.00 93 1020.7
20260504184343 7 29 1.6 8.0 0.00 0.00 0.00 92 1020.6
20260504181349 7 242 1.6 11.3 0.00 0.00 0.00 88 1020.7
20260504174352 8 13 0.0 9.7 0.00 0.00 0.00 81 1020.8
20260504171355 8 42 4.8 16.1 0.00 0.00 0.00 80 1020.9
20260504081349 10 74 1.6 12.9 0.00 0.00 0.00 71 1022.0